This is the latest recevied weather packets stored in our database for station/object SP9TKN-1. If no packets are shown the sender has not sent any weather packets the latest 10 day(s).
| Time | Temp. | Humidity | Pressure | Rain* | Wind** | Luminosity | Snow |
|---|---|---|---|---|---|---|---|
| 1777818669 | 21.67° C | 27% | 1016.7 hPa | - | - | - | - |
| 1777817769 | 21.67° C | 27% | 1016.9 hPa | - | - | - | - |
| 1777816871 | 21.67° C | 26% | 1017.1 hPa | - | - | - | - |
| 1777815971 | 22.22° C | 25% | 1017.1 hPa | - | - | - | - |
| 1777813271 | 22.22° C | 24% | 1017.7 hPa | - | - | - | - |
| 1777811471 | 22.22° C | 25% | 1018 hPa | - | - | - | - |
| 1777810571 | 22.22° C | 25% | 1018.1 hPa | - | - | - | - |
| 1777809670 | 22.22° C | 25% | 1018.3 hPa | - | - | - | - |
| 1777808773 | 21.67° C | 28% | 1018.5 hPa | - | - | - | - |
| 1777807872 | 21.67° C | 27% | 1018.6 hPa | - | - | - | - |
| 1777806970 | 21.67° C | 27% | 1018.8 hPa | - | - | - | - |
| 1777806070 | 21.11° C | 29% | 1018.9 hPa | - | - | - | - |
| 1777805170 | 21.11° C | 29% | 1019 hPa | - | - | - | - |
| 1777804270 | 21.11° C | 28% | 1019.2 hPa | - | - | - | - |
| 1777803370 | 20.56° C | 30% | 1019.4 hPa | - | - | - | - |
| 1777802470 | 20.56° C | 31% | 1019.5 hPa | - | - | - | - |
| 1777801570 | 20° C | 31% | 1019.7 hPa | - | - | - | - |
| 1777800670 | 20° C | 31% | 1019.9 hPa | - | - | - | - |
| 1777799770 | 19.44° C | 32% | 1019.9 hPa | - | - | - | - |
| 1777798870 | 18.89° C | 33% | 1020.1 hPa | - | - | - | - |
| 1777797970 | 18.33° C | 34% | 1020.1 hPa | - | - | - | - |
| 1777797069 | 18.33° C | 34% | 1020.1 hPa | - | - | - | - |
| 1777796169 | 17.78° C | 35% | 1020.1 hPa | - | - | - | - |
| 1777795291 | 17.22° C | 37% | 1020.2 hPa | - | - | - | - |
| 1777793671 | 16.11° C | 40% | 1020.1 hPa | - | - | - | - |
* Rain since midnight (hover to see other rain measurements)
** Current wind speed in m/s (hover to see current wind gust speed)